Regional Weather Roundup
Issued by NWS

Home | Current Version | Previous Version | Graphics & Text | Print | Product List | Glossary On
Versions: 1 2 3 4 5 6 7 8 9 10 11 12 13 14 15 16 17 18 19 20 21 22 23 24 25 26 27 28 29 30 31 32 33 34 35 36 37 38 39 40 41 42 43 44 45 46 47 48 49 50
000
ASUS43 KIND 251309
RWRIN

WEATHER ROUNDUP FOR INDIANA
NATIONAL WEATHER SERVICE INDIANAPOLIS IN
900 AM EDT SAT APR 25 2015

NOTE: "FAIR" INDICATES FEW OR NO CLOUDS BELOW 12,000 FEET WITH NO
SIGNIFICANT WEATHER AND/OR OBSTRUCTIONS TO VISIBILITY.

* - STATION DOES NOT REPORT WEATHER SUCH AS PRECIPITATION OR FOG.

+ - STATION NOT QUALITY CONTROLLED BY THE NATIONAL WEATHER SERVICE.
    USE DATA WITH CAUTION...ESPECIALLY DEWPOINT AND RELATIVE
    HUMIDITY OBSERVATIONS.

INZ001>003-010>013-019-020-251400-
NORTHWEST INDIANA

CITY           SKY/WX    TMP DP  RH WIND       PRES   REMARKS
GARY /AIRPORT/ LGT RAIN  45  37  76 E12G23    29.81S
KNOX *+        CLOUDY    41  32  70 E14       29.82R
LA PORTE +     LGT RAIN  44  40  86 E14       29.83R
MICHIGAN CITY+ DRIZZLE   43  34  70 E8        29.82S
MONTICELLO +   DRIZZLE   44  42  95 E8        29.76F
RENSSELAER +   LGT RAIN  43  43 100 E18G24    29.76F
VALPARAISO     LGT RAIN  42  39  89 E17       29.80F

$$

LMZ046-743>745-251400-
SOUTHERN LAKE MICHIGAN

STATION/POSITION TIME  TEMP    WIND        PRES    WAVE
                       AIR SEA DIR/SP/G            HT
                 (UTC) (F)     (DEG/KT/KT) (MB)    (FT)
BURNS HARBOR     1300   44     100/ 10/ 14 1010.2S
MICHIGAN CITY    1300   44      90/ 18/ 24   N/A
5NW MICH CITY    1300   45 44  130/ 16/ 21   N/A     3

$$

INZ004-005-014>016-021>024-251400-
NORTH CENTRAL INDIANA

CITY           SKY/WX    TMP DP  RH WIND       PRES   REMARKS
ELKHART        LGT RAIN  43  36  75 E14       29.84
GOSHEN         CLOUDY    43  37  79 E14G22    29.84F
LOGANSPORT +   LGT RAIN  41  37  87 NE13      29.79F
PERU/GRISSOM   LGT RAIN  44  40  86 E16       29.76F
ROCHESTER +    LGT RAIN  43  41  93 E16G22    29.82S
SOUTH BEND     LGT RAIN  44  37  76 E16       29.83F
WARSAW +       LGT RAIN  41  36  81 E15       29.84S

$$

INZ006>009-017-018-025>027-251400-
NORTHEAST INDIANA

CITY           SKY/WX    TMP DP  RH WIND       PRES   REMARKS
ANGOLA *+      CLOUDY    41  37  87 SE9       29.86F
AUBURN +       CLOUDY    43  36  75 E10       29.87F
FORT WAYNE     LGT RAIN  42  36  79 E21       29.85F
HUNTINGTON +   LGT RAIN  40  37  89 E9        29.83F

$$

INZ028-029-035-036-043>045-051>053-251400-
WEST CENTRAL INDIANA

CITY           SKY/WX    TMP DP  RH WIND       PRES   REMARKS
CRAWFORDSVL +  LGT RAIN  46  42  84 E13       29.71F
GREENCASTLE +  CLOUDY    48  43  81 E14       29.71F
LAFAYETTE      CLOUDY    48  45  89 E15       29.73S
TERRE HAUTE    CLOUDY    51  46  83 E15       29.67F

$$

INZ030>032-037>040-046>048-054>057-064-065-251400-
CENTRAL INDIANA

CITY           SKY/WX    TMP DP  RH WIND       PRES   REMARKS
ANDERSON       LGT RAIN  46  41  81 E9        29.79
CP ATTERBURY + CLOUDY    50  43  76 E6        29.73F
COLUMBUS       CLOUDY    50  41  71 E9        29.73F
FISHERS *+     CLOUDY    46  45  93 E7        29.75F
FRANKFORT +    PTSUNNY   47  47 100 E15       29.76F
GREENWOOD *+   CLOUDY    48  39  71 E10       29.74F
INDIANAPOLIS   CLOUDY    48  41  76 E15       29.72F
-EAGLE CREEK   CLOUDY    48  42  80 E13       29.73F
KOKOMO *+      CLOUDY    46  39  76 E13       29.79F
MARION +       CLOUDY    45  38  79 E10       29.80F
MT COMFORT *+  CLOUDY    48  39  71 E13       29.76F
SHELBYVILLE    CLOUDY    50  40  68 E12       29.74F
ZIONSVILLE +   CLOUDY    47  43  84 E9        29.75F

$$

INZ033-034-041-042-049-050-058-059-251400-
EAST CENTRAL INDIANA

CITY           SKY/WX    TMP DP  RH WIND       PRES   REMARKS
MUNCIE         LGT RAIN  46  41  82 E8        29.80S

$$

INZ060-061-067>069-081>083-085>088-251400-
SOUTHWEST INDIANA

CITY           SKY/WX    TMP DP  RH WIND       PRES   REMARKS
EVANSVILLE     CLOUDY    54  51  90 SE5       29.67F FOG
HUNTINGBURG *+ CLOUDY    50  46  87 SE12      29.69F
WASHINGTON +   RAIN      51  47  87 SE10      29.67F

$$

INZ062-063-066-070>080-084-089>092-251400-
SOUTH CENTRAL AND SOUTHEAST INDIANA

CITY           SKY/WX    TMP DP  RH WIND       PRES   REMARKS
BEDFORD +      RAIN      50  45  81 E8        29.70F
BLOOMINGTON    LGT RAIN  51  46  83 E13       29.70F
MADISON *+     CLOUDY    50  43  76 E12G17    29.75F
NORTH VERNON + CLOUDY    52  45  76 E8        29.74F
SEYMOUR +      CLOUDY    52  45  76 E7        29.72F

$$




USA.gov is the U.S. government's official web portal to all federal, state and local government web resources and services.